Home   Weather   Sankt Ingbert   Past weeks

Flag for Germany Past Weather in Sankt Ingbert, Saarland, Germany — Yesterday and Last 2 Weeks

41 °F

Passing clouds.

Feels Like: 38 °F
Forecast: 35 / 49 °F
Wind: 5 mph from East

Location: Saarbruecken / Ensheim

Current Time: Oct 23, 2016 at 1:42:53 AM

Latest Report: Oct 23, 2016 at 1:20 AM

Visibility: 2 mi

Pressure: 29.92 "Hg

Humidity: 100%

Dew Point: 41 °F

Location of Sankt IngbertLocation

Past Weather in Sankt Ingbert — Graph


Sankt Ingbert Temperature Yesterday

Maximum temperature yesterday: 48 °F (at 1:50 PM)
Minimum temperature yesterday: 37 °F (at 12:20 AM)
Average temperature yesterday: 43 °F

High & Low Weather Summary for the Past Weeks

High64 °F (Oct 16, 2:20 PM)100% (Oct 8, 11:20 PM)30.27 "Hg (Oct 8, 11:20 PM)
Low36 °F (Oct 21, 10:50 PM)51% (Oct 11, 3:50 PM)29.65 "Hg (Oct 14, 4:50 PM)
Average47 °F86%30.04 "Hg
* Reported Oct 8 12:20 AM — Oct 23 12:20 AM, Sankt Ingbert, Weather by CustomWeather, © 2016

Note: Actual official high and low records may vary slightly from our data, if they occured in-between our weather recording intervals... More about our weather records


Sankt Ingbert Weather History for the Previous 24 Hours

Scroll right to see more
Time TempWeatherWind HumidityBarometerVisibility
12:20 AM
Sun, Oct 23
41 °FPartly cloudy.3 mph100%29.92 "Hg1 mi
11:50 PM
Sat, Oct 22
43 °FOvercast.5 mph93%29.95 "Hg1 mi
11:20 PM41 °FPassing clouds.5 mph100%29.95 "Hg2 mi
10:50 PM43 °FClear.3 mph93%29.95 "Hg10 mi
10:20 PM43 °FClear.5 mph100%29.95 "Hg10 mi
9:50 PM45 °FClear.2 mph93%29.95 "Hg10 mi
9:20 PM45 °FClear.3 mph100%29.95 "Hg10 mi
8:50 PM45 °FClear.2 mph93%29.95 "Hg10 mi
8:20 PM45 °FClear.1 mph100%29.95 "Hg10 mi
7:50 PM46 °FClear.2 mph93%29.95 "Hg10 mi
7:20 PM45 °FClear.1 mph100%29.95 "Hg10 mi
6:50 PM46 °FPassing clouds.1 mph93%29.95 "HgN/A
6:20 PM46 °FPartly sunny.2 mph93%29.95 "HgN/A
5:50 PM46 °FPartly sunny.1 mph93%29.92 "HgN/A
5:20 PM48 °FSprinkles. Broken clouds.1 mph87%29.95 "HgN/A
4:50 PM48 °FSprinkles. Partly sunny.5 mph87%29.95 "HgN/A
4:20 PM48 °FBroken clouds.5 mph82%29.95 "HgN/A
3:50 PM48 °FPartly sunny.6 mph82%29.95 "HgN/A
3:20 PM48 °FPartly sunny.6 mph82%29.95 "HgN/A
2:50 PM48 °FPartly sunny.6 mph82%29.95 "HgN/A
2:20 PM48 °FPartly sunny.5 mph87%29.95 "HgN/A
1:50 PM48 °FPartly sunny.5 mph87%29.95 "Hg6 mi
1:20 PM46 °FLight rain. Partly sunny.6 mph87%29.95 "Hg4 mi
12:50 PM45 °FLight rain. Partly sunny.7 mph93%29.95 "Hg4 mi
12:20 PM45 °FPartly sunny.7 mph93%29.95 "Hg4 mi
11:50 AM45 °FLight rain. Fog.6 mph93%29.95 "Hg3 mi
11:20 AM45 °FFog.7 mph93%29.95 "Hg3 mi
10:50 AM43 °FFog.7 mph93%29.95 "Hg2 mi
10:20 AM43 °FFog.7 mph93%29.95 "Hg2 mi
9:50 AM43 °FFog.7 mph93%29.95 "Hg2 mi
9:20 AM43 °FFog.7 mph87%29.95 "Hg2 mi
8:50 AM41 °FFog.6 mph93%29.95 "Hg3 mi
8:20 AM41 °FFog.5 mph93%29.95 "Hg2 mi
7:50 AM41 °FFog.6 mph93%29.95 "Hg2 mi
7:20 AM41 °FFog.5 mph93%29.95 "Hg2 mi
6:50 AM41 °FFog.6 mph93%29.95 "Hg2 mi
6:20 AM41 °FFog.6 mph93%29.95 "Hg3 mi
5:50 AM41 °FFog.5 mph93%29.95 "Hg3 mi
5:20 AM41 °FFog.6 mph93%29.95 "Hg3 mi
4:50 AM39 °FFog.7 mph100%29.95 "Hg3 mi
4:20 AM39 °FFog.2 mph100%29.95 "Hg3 mi
3:50 AM37 °FFog.3 mph100%29.95 "Hg2 mi
3:20 AM37 °FPassing clouds.5 mph100%29.95 "Hg2 mi
2:50 AM37 °FPassing clouds.5 mph100%29.98 "Hg2 mi
2:20 AM39 °FPassing clouds.2 mph93%29.98 "Hg2 mi
1:50 AM37 °FPassing clouds.2 mph93%29.98 "Hg3 mi
1:20 AM39 °FPassing clouds.3 mph93%29.98 "Hg4 mi
Weather by CustomWeather, © 2016

See weather overviewHow to use our weather pages